CZ-4 DEB, 27677

Orbit data source: Space-Track

CZ-4 DEB, 27677 is space debris in SSO originally from a launch on Thu, 14 Oct 1999 UTC launched from the Taiyaun Space Center, China (TSC). Debris objects in space refer to the collection of defunct objects orbiting the Earth. Examples of debris include non-operational satellites, rocket bodies, and fragments generated from explosions, collisions, or faulty payload assembly.

Loading next visibility...
Identifier
27677, 1999-057MR
Orbit
SSO
Country
Flag of CNCN / PRC
Related business
Manufacturer
Unknown
Mission
Spacecraft
Bus & Motor
Unknown
Mass
Unknown
Launch date (UTC)
1999-10-14 (26 years ago)
Launch vehicle
Unknown
Launch site
Taiyaun Space Center, China (TSC)
Object type
Payload
Rocket body
Debris
Shape & HBR
Unknown shape, 0.1 m
Radar Cross Section
Small (<0.1 m²)

Expand to show TLE details & history
Last TLE update: 1 day ago

TLE from 1 day ago
0 CZ-4 DEB
1 27677U 99057MR  26093.12634877  .00000607  00000-0  17241-3 0  9998
2 27677  98.5863 148.2773 0073094 314.5606  72.4952 14.47648136259032
Epoch: 2026-04-03T03:01Z
TLE epoch observation values (Epoch: 2026-04-03T03:01:56.533Z)
Latitude
27.55981°
Longitude
-93.16859°
Altitude
721.455 km
Speed
7.505 km/s
True Right ascension
09h 35m 07s
True Declination
27° 25' 06"
Sunlit
Object was in full shadow at epoch
Visualization orbit readout
Latitude
Unknown
Longitude
Unknown
Altitude
Unknown
Speed
Unknown
Apparent Right ascension
Unknown
Apparent Declination
Unknown
Sunlit
N/A
Visualization observer readout
Local Sidereal Time
09:52:14
Azimuth
Unknown
Elevation
Unknown
Doppler factor
Unknown
Orbital elements
Apogee altitude
782.415 km
Perigee altitude
678.496 km
Semi-major axis
7,108.593 km
Eccentricity
0.00731
Inclination
98.5863°
RAAN
148.2773°
Arg. of periapsis
314.5606°
True anomaly
73.29618°
Mean anomaly
72.4952°
Eccentric anomaly
72.89547°
Mean motion
3.62133 °/min
Orbital period
99.41 mins
BSTAR
0.00017241
Loading maneuver chart data...
Computing Atmospheric mass density...
Loading historical data...
Loading historical data...
Loading historical data...
Loading historical data...
Loading historical data...
Loading historical data...
Loading historical data...

Documentation

Showing up to 5 results
|